Weather History for Ord, NE

Change the Weather History Date:

Sunday, December 23, 2012

  Actual Average Record
Temperature  
Mean Temperature 17 °F 23 °F  
Max Temperature 26 °F 35 °F 64 °F (1996)
Min Temperature 8 °F 12 °F -5 °F (2004)
Degree Days  
Heating Degree Days 48    
Month to date heating degree days 785  
Since 1 July heating degree days 2311  
Cooling Degree Days 0    
Month to date cooling degree days 0  
Year to date cooling degree days 1220  
Moisture  
Dew Point 11 °F    
Average Humidity 85    
Maximum Humidity 96    
Minimum Humidity 73    
Precipitation  
Precipitation T in 0.01 in 0.52 in (1948)
Month to date precipitation 0.30 0.51  
Year to date precipitation 11.79 24.86  
Sea Level Pressure  
Sea Level Pressure 30.06 in    
Wind  
Wind Speed 6 mph (NNW)    
Max Wind Speed 20 mph    
Max Gust Speed 24 mph    
Visibility 6 miles    
Events Snow    
T = Trace of Precipitation, MM = Missing Value Source: NWS Daily Summary

Daily Weather History Graph

Daily Weather History Graph

Search for Another Location

Airport:

Trip Planner

Search our weather history database for the weather conditions in past years. The results will help you decide how hot, cold, wet, or windy it might be!

Date:

Astronomy

Dec. 23, 2012 Rise Set
Actual Time 8:00 AM CST 5:10 PM CST
Civil Twilight 7:28 AM CST 5:41 PM CST
Nautical Twilight 6:53 AM CST 6:16 PM CST
Astronomical Twilight 6:20 AM CST 6:50 PM CST
Moon 2:03 PM CST (12/23) 3:42 AM CST (12/23)
Length of Visible Light 10h 12m
Length of Day
9h 09m
Waxing Gibbous, 82% of the Moon is Illuminated
Dec 23
Waxing Gibbous
Dec 28
Full
Jan 4
Last Quarter
Jan 11
New
Jan 18
First Quarter

Hourly Weather History & Observations

Time (CST) Temp. Windchill Dew Point Humidity Pressure Visibility Wind Dir Wind Speed Gust Speed Precip Events Conditions
12:02 AM 15.8 °F 4.2 °F 12.2 °F 86% 30.01 in 7.0 mi North 9.2 mph - N/A   Mostly Cloudy
12:09 AM 15.8 °F 8.6 °F 12.2 °F 86% 30.01 in 7.0 mi NNE 4.6 mph - N/A   Mostly Cloudy
12:53 AM 15.1 °F 4.2 °F 12.0 °F 88% 30.09 in 7.0 mi North 8.1 mph - N/A   Overcast
1:53 AM 12.9 °F 0.7 °F 10.0 °F 88% 30.11 in 6.0 mi NW 9.2 mph - N/A   Mostly Cloudy
2:53 AM 14.0 °F 2.9 °F 12.0 °F 92% 30.10 in 5.0 mi North 8.1 mph - N/A   Overcast
3:53 AM 12.9 °F 3.8 °F 10.9 °F 92% 30.11 in 6.0 mi NNW 5.8 mph - N/A   Overcast
4:53 AM 12.0 °F 1.5 °F 10.0 °F 92% 30.09 in 5.0 mi North 6.9 mph - N/A   Overcast
5:53 AM 12.0 °F 1.5 °F 10.0 °F 92% 30.09 in 4.0 mi North 6.9 mph - N/A   Overcast
6:03 AM 12.2 °F 0.7 °F 10.4 °F 92% 29.99 in 4.0 mi North 8.1 mph - N/A   Overcast
6:53 AM 10.9 °F 4.7 °F 9.0 °F 92% 30.09 in 5.0 mi North 3.5 mph - N/A   Overcast
7:53 AM 10.0 °F 3.6 °F 8.1 °F 92% 30.09 in 4.0 mi NNE 3.5 mph - N/A   Overcast
8:26 AM 10.4 °F 4.0 °F 8.6 °F 92% 29.97 in 2.5 mi NNW 3.5 mph - N/A   Overcast
8:43 AM 10.4 °F 2.2 °F 8.6 °F 92% 29.98 in 3.0 mi North 4.6 mph - N/A   Overcast
8:53 AM 10.0 °F 0.4 °F 8.1 °F 92% 30.09 in 2.5 mi North 5.8 mph - N/A   Overcast
9:06 AM 10.4 °F 4.0 °F 8.6 °F 92% 29.98 in 1.5 mi NW 3.5 mph - 0.00 in Snow Light Snow
9:30 AM 10.4 °F 0.8 °F 8.6 °F 92% 29.99 in 1.8 mi NW 5.8 mph - 0.00 in Snow Light Snow
9:45 AM 10.4 °F 2.2 °F 8.6 °F 92% 29.99 in 2.5 mi NNW 4.6 mph - 0.00 in Snow Light Snow
9:53 AM 10.9 °F 4.7 °F 8.1 °F 88% 30.10 in 2.5 mi NW 3.5 mph - 0.00 in Snow Light Snow
10:11 AM 10.4 °F 4.0 °F 8.6 °F 92% 29.99 in 4.0 mi NW 3.5 mph - 0.00 in   Mostly Cloudy
10:37 AM 12.2 °F - 10.4 °F 92% 29.99 in 4.0 mi Calm Calm - 0.00 in   Scattered Clouds
10:53 AM 12.9 °F - 10.0 °F 88% 30.10 in 6.0 mi Calm Calm - 0.00 in   Clear
11:53 AM 16.0 °F - 10.9 °F 81% 30.08 in 7.0 mi Calm Calm - N/A   Clear
12:53 PM 19.0 °F 12.3 °F 12.9 °F 77% 30.05 in 8.0 mi South 4.6 mph - N/A   Clear
1:53 PM 21.0 °F 16.2 °F 15.1 °F 78% 30.02 in 8.0 mi South 3.5 mph - N/A   Clear
2:53 PM 23.0 °F 15.8 °F 16.0 °F 74% 30.01 in 8.0 mi South 5.8 mph - N/A   Clear
3:53 PM 24.1 °F 19.7 °F 17.1 °F 75% 30.02 in 8.0 mi West 3.5 mph - N/A   Clear
4:53 PM 23.0 °F - 17.1 °F 78% 30.04 in 7.0 mi Calm Calm - N/A   Clear
5:53 PM 19.9 °F 13.4 °F 15.1 °F 81% 30.04 in 9.0 mi NW 4.6 mph - N/A   Clear
6:53 PM 21.9 °F 9.8 °F 17.1 °F 82% 30.08 in 10.0 mi NNW 12.7 mph - N/A   Clear
7:53 PM 18.0 °F 4.8 °F 12.9 °F 81% 30.11 in 9.0 mi North 12.7 mph - N/A   Clear
8:53 PM 15.1 °F 4.2 °F 8.1 °F 74% 30.13 in 10.0 mi North 8.1 mph - N/A   Clear
9:53 PM 10.9 °F 1.4 °F 6.1 °F 81% 30.16 in 10.0 mi North 5.8 mph - N/A   Clear
10:53 PM 10.0 °F -0.9 °F 5.0 °F 80% 30.16 in 10.0 mi NW 6.9 mph - N/A   Clear
11:53 PM 9.0 °F -0.9 °F 3.9 °F 80% 30.15 in 10.0 mi NW 5.8 mph - N/A   Clear